Location: Unspecified
(41.1637°N, 24.2901°E)
Time: 13:24:17
(UTC+01:00)

ARIANE 6 FM1 Upper Stage - Pass Details

Date: 28 January 2026
Orbit: 522 x 609 km, 62.0° (Epoch: 11 February)

Event Time Altitude Azimuth Distance (km) Brightness Sun altitude
Rises 16:54:00 0° 232° (SW) 2,716 7.9 -4.3°
Reaches altitude 10° 16:56:19 10° 240° (WSW) 1,811 7.0 -4.7°
Maximum altitude 17:00:11 42° 312° (NW) 776 3.7 -5.4°
Drops below altitude 10° 17:04:00 10° 24° (NNE) 1,783 4.8 -6.0°
Enters shadow 17:05:58 - 31° (NNE) 2,544 5.6 -6.4°
